Location: *
(43.9905°S, 176.4941°W)
Time: 07:08:45
(UTC+00:00)

SJ 16-02 - Pass Details

Date: 08 December 2019
Orbit: 605 x 617 km, 75.0° (Epoch: 19 January)

Event Time Altitude Azimuth Distance (km) Brightness Sun altitude
Rises 11:28:19 0° 215° (SW) 2,918 5.7 -23.3°
Reaches altitude 10° 11:31:10 10° 234° (SW) 2,000 4.4 -23.3°
Maximum altitude 11:34:09 18° 276° (W) 1,537 3.3 -23.3°
Enters shadow 11:34:14 18° 277° (W) 1,537 3.3 -23.3°
